1496199600.26,17173,18.63,74004.8,4.73,3.37,3.23,0,*7B
1496199601.49,17174,18.63,74008.8,4.73,3.45,3.33,0,*78
1496199602.69,17175,18.69,74006.5,4.73,3.25,3.11,0,*7F
1496199603.89,17176,18.63,74006.5,4.73,3.25,3.19,0,*74
1496199605.11,17177,18.63,74004.3,4.73,3.33,3.19,0,*72
1496199606.33,17178,18.69,74008.0,4.73,3.33,3.23,0,*74
1496199607.55,17179,18.63,74008.8,4.73,3.33,3.23,0,*75
1496199608.75,17180,18.63,74006.3,4.73,3.25,3.23,0,*74
1496199609.96,17181,18.69,74014.3,4.73,3.33,3.19,0,*7B
1496199611.17,17182,18.63,74006.3,4.73,3.25,3.07,0,*70
1496199612.39,17183,18.63,74004.0,4.73,3.33,3.19,0,*79
1496199613.56,17184,18.69,74008.3,4.73,3.25,2.99,0,*70
1496199614.74,17185,18.69,74004.3,4.73,3.25,2.99,0,*71
1496199615.96,17186,18.63,74004.0,4.73,3.19,3.07,0,*7B
1496199617.18,17187,18.69,74012.8,4.73,3.33,3.19,0,*7D
1496199618.38,17188,18.63,74004.8,4.73,2.73,1.83,0,*76
1496199619.59,17189,18.63,74006.8,4.73,2.77,1.89,0,*79
1496199620.79,17190,18.69,74010.5,4.73,2.73,1.79,0,*7A
1496199621.99,17191,18.63,74012.3,4.73,2.61,1.43,0,*71
1496199623.16,17192,18.69,74016.8,4.73,2.61,1.41,0,*70
1496199624.34,17193,18.69,74020.5,4.73,2.73,1.41,0,*72
1496199625.55,17194,18.63,74012.5,4.73,2.65,1.33,0,*77
1496199626.72,17195,18.69,74018.5,4.73,2.65,1.41,0,*73
1496199627.92,17196,18.63,74012.8,4.73,2.65,1.43,0,*72
1496199629.12,17197,18.69,74014.3,4.73,2.61,1.33,0,*70
1496199630.29,17198,18.69,74014.8,4.73,2.65,1.41,0,*7E
1496199631.46,17199,18.69,74010.0,4.73,2.61,1.41,0,*7B
1496199632.66,17200,18.69,74014.3,4.73,2.61,1.29,0,*76
1496199633.83,17201,18.69,74006.8,4.73,2.65,1.41,0,*7D
1496199635.0,17202,18.69,74010.0,4.73,2.61,1.41,0,*7A
1496199636.2,17203,18.69,74008.0,4.75,2.65,1.41,0,*79
1496199637.43,17204,18.69,74006.5,4.75,2.61,1.33,0,*7F
1496199638.64,17205,18.69,74004.0,4.75,2.73,1.41,0,*78
1496199639.86,17206,18.69,74004.0,4.77,2.77,1.47,0,*7B
1496199641.07,17207,18.69,74002.8,4.77,2.65,1.33,0,*7A
1496199642.3,17208,18.69,74000.5,4.75,2.61,1.21,0,*70
1496199643.53,17209,18.69,74000.0,4.75,2.61,1.33,0,*72
1496199644.76,17210,18.69,74004.5,4.75,2.61,1.33,0,*7A
1496199645.99,17211,18.63,74000.3,4.75,2.61,1.21,0,*78
1496199647.21,17212,18.69,74004.0,4.75,2.61,1.29,0,*73
1496199648.44,17213,18.69,74010.5,4.75,2.61,1.21,0,*7A
1496199649.65,17214,18.69,74008.0,4.77,2.65,1.33,0,*78
1496199650.88,17215,18.63,74010.3,4.75,2.61,1.21,0,*7C
1496199652.11,17216,18.69,74008.0,4.77,2.59,1.33,0,*75
1496199653.34,17217,18.69,74008.8,4.75,2.61,1.21,0,*7E
1496199654.59,17218,18.69,74010.3,4.75,2.55,1.17,0,*73
1496199655.84,17219,18.69,74000.5,4.75,2.55,1.17,0,*72
1496199657.1,17220,18.69,74006.3,4.75,2.47,1.09,0,*74
1496199658.35,17221,18.63,74004.3,4.75,2.51,1.09,0,*72
1496199659.59,17222,18.69,74000.5,4.77,2.51,1.21,0,*79
1496199660.84,17223,18.69,74014.3,4.75,2.51,1.09,0,*70
1496199662.1,17224,18.69,74008.5,4.75,2.47,1.09,0,*70
1496199663.35,17225,18.69,74012.8,4.75,2.47,1.17,0,*7E
1496199664.58,17226,18.63,74012.3,4.77,2.47,1.09,0,*70
1496199665.84,17227,18.69,74008.8,4.75,2.51,1.09,0,*74
1496199667.1,17228,18.69,74014.8,4.75,2.47,1.09,0,*7C
1496199668.35,17229,18.69,74008.5,4.75,2.47,1.17,0,*72
1496199669.58,17230,18.69,74006.8,4.75,2.47,1.05,0,*79
1496199670.78,17231,18.69,74022.3,4.77,2.51,1.01,0,*79
1496199672.0,17232,18.69,74010.3,4.75,2.39,0.97,0,*48
1496199673.23,17233,18.63,74006.3,4.77,2.51,1.13,0,*78
1496199674.47,17234,18.69,74002.8,4.77,2.43,1.09,0,*77
1496199675.67,17235,18.69,74008.3,4.77,2.39,1.01,0,*73
1496199676.87,17236,18.69,74008.3,4.77,2.43,1.01,0,*7D
1496199678.1,17237,18.69,74018.0,4.75,2.39,1.05,0,*77
1496199679.3,17238,18.69,74006.0,4.77,2.39,1.01,0,*7E
1496199680.51,17239,18.63,74008.5,4.77,2.27,0.83,0,*4B
1496199681.73,17240,18.69,74004.5,4.75,2.35,0.91,0,*47
1496199682.96,17241,18.69,74002.0,4.77,2.39,0.95,0,*4C
1496199684.13,17242,18.63,74000.5,4.77,2.31,1.01,0,*7B
1496199685.39,17243,18.69,74002.5,4.75,2.39,1.09,0,*78
1496199686.62,17244,18.63,73994.0,4.75,2.27,0.91,0,*40
1496199687.85,17245,18.69,74002.0,4.75,2.27,0.91,0,*41
1496199689.1,17246,18.69,74004.3,4.75,2.17,0.95,0,*45
1496199690.32,17247,18.69,73998.3,4.75,2.39,1.05,0,*70
1496199691.58,17248,18.69,73998.8,4.75,2.47,1.09,0,*7A
1496199692.81,17249,18.69,73998.3,4.75,2.47,1.05,0,*77
1496199694.03,17250,18.63,73996.0,4.77,2.55,1.13,0,*79
1496199695.29,17251,18.69,74004.0,4.75,2.51,1.09,0,*75
1496199696.52,17252,18.69,73996.0,4.75,2.47,1.05,0,*7D
1496199697.72,17253,18.63,73990.3,4.77,2.39,1.01,0,*73
1496199698.93,17254,18.69,74002.8,4.77,2.43,1.01,0,*79
1496199700.13,17255,18.69,74000.8,4.77,2.39,1.01,0,*75
1496199701.36,17256,18.63,73998.3,4.75,2.27,0.91,0,*43
1496199702.55,17257,18.69,73992.5,4.77,2.35,0.95,0,*47
1496199703.75,17258,18.63,73992.0,4.75,2.35,0.97,0,*48
1496199704.96,17259,18.63,74004.0,4.75,2.35,0.95,0,*4B
1496199706.18,17260,18.63,74000.0,4.75,2.27,0.95,0,*42
1496199707.38,17261,18.69,74000.8,4.77,2.39,1.01,0,*72
1496199708.59,17262,18.69,74000.0,4.77,2.39,1.01,0,*71
1496199709.78,17263,18.69,74012.3,4.77,2.27,0.95,0,*43
1496199711.03,17264,18.63,74002.8,4.75,2.25,0.95,0,*44
1496199712.22,17265,18.63,74002.8,4.77,2.39,0.97,0,*48
1496199713.43,17266,18.69,74002.5,4.77,2.31,0.87,0,*42
1496199714.68,17267,18.69,74002.0,4.75,2.17,0.95,0,*46
1496199715.87,17268,18.69,74002.5,4.77,2.27,0.95,0,*48
1496199717.07,17269,18.63,74002.5,4.77,2.25,1.01,0,*77
1496199718.27,17270,18.63,74002.5,4.75,2.35,1.05,0,*78
1496199719.49,17271,18.69,74006.5,4.75,2.27,0.95,0,*42
1496199720.71,17272,18.63,74004.8,4.77,2.21,0.95,0,*45
1496199721.96,17273,18.63,74010.3,4.75,2.25,0.83,0,*45
1496199723.13,17274,18.69,74016.5,4.77,2.31,0.97,0,*40
1496199724.35,17275,18.63,74004.3,4.77,2.21,0.83,0,*45
1496199725.58,17276,18.63,74004.0,4.77,2.21,0.87,0,*42
1496199726.75,17277,18.63,74004.8,4.77,2.27,1.01,0,*7A
1496199727.95,17278,18.63,74010.3,4.77,2.21,0.97,0,*4D
1496199729.14,17279,18.63,74022.5,4.77,2.27,0.95,0,*48
1496199730.31,17280,18.69,74010.0,4.77,2.27,0.97,0,*4C
1496199731.49,17281,18.69,74016.3,4.77,2.27,0.97,0,*4D
1496199732.68,17282,18.69,74008.8,4.77,2.27,0.95,0,*4C
1496199733.91,17283,18.69,74006.5,4.77,2.17,0.95,0,*4E
1496199735.14,17284,18.69,74006.8,4.77,2.17,0.87,0,*4A
1496199736.34,17285,18.69,74022.8,4.77,2.31,0.95,0,*4C
1496199737.53,17286,18.69,74016.8,4.77,2.27,0.95,0,*48
1496199738.75,17287,18.63,74008.5,4.77,2.21,0.95,0,*4F
1496199739.93,17288,18.63,74018.8,4.77,2.31,1.01,0,*7D
1496199741.1,17289,18.63,74024.0,4.77,2.27,0.97,0,*45
1496199742.33,17290,18.69,74014.3,4.79,2.31,0.91,0,*42
1496199743.58,17291,18.63,73990.5,4.79,2.21,0.87,0,*45
1496199744.81,17292,18.69,74018.0,4.79,2.31,0.91,0,*40
1496199746.05,17293,18.69,74004.3,4.79,2.21,0.87,0,*47
1496199747.3,17294,18.69,74004.5,4.79,2.21,0.91,0,*47
1496199748.52,17295,18.69,73996.3,4.79,2.25,0.97,0,*44
1496199749.77,17296,18.69,73994.5,4.79,2.21,0.91,0,*45
1496199751.0,17297,18.69,74012.0,4.81,2.13,0.87,0,*45
1496199752.21,17298,18.69,74014.3,4.79,2.21,0.97,0,*4D
1496199753.44,17299,18.69,74006.0,4.77,2.09,0.87,0,*49
1496199754.67,17300,18.69,74014.0,4.77,2.17,0.83,0,*43
1496199755.9,17301,18.69,74012.0,4.77,2.09,0.83,0,*4D
1496199757.15,17302,18.69,74004.3,4.75,1.93,0.75,0,*45
1496199758.4,17303,18.63,74002.3,4.79,2.21,0.91,0,*48
1496199759.65,17304,18.69,74000.0,4.79,2.13,0.91,0,*4E
1496199760.87,17305,18.63,74000.8,4.77,2.21,0.95,0,*44
1496199762.07,17306,18.69,74006.3,4.77,2.17,0.97,0,*40
1496199763.32,17307,18.69,73996.5,4.75,1.93,0.71,0,*44
1496199764.55,17308,18.69,73994.8,4.77,2.05,0.75,0,*41
1496199765.77,17309,18.69,73990.5,4.77,2.09,0.75,0,*4C
1496199767.0,17310,18.69,74000.3,4.77,2.17,0.95,0,*45
1496199768.21,17311,18.69,73992.0,4.77,2.21,0.95,0,*41
1496199769.44,17312,18.69,73996.0,4.77,2.17,0.95,0,*47
1496199770.67,17313,18.63,73998.0,4.77,2.09,0.83,0,*4E
1496199771.92,17314,18.63,74006.3,4.79,2.21,0.91,0,*4E
1496199773.17,17315,18.69,74008.0,4.79,2.21,0.91,0,*4F
1496199774.42,17316,18.63,73992.3,4.79,2.13,0.75,0,*47
1496199775.64,17317,18.69,73998.3,4.77,2.05,0.75,0,*4F
1496199776.88,17318,18.69,74006.0,4.77,2.17,0.87,0,*4E
1496199778.12,17319,18.63,74002.3,4.79,2.21,0.87,0,*44
1496199779.37,17320,18.69,73998.0,4.79,2.13,0.79,0,*4E
1496199780.62,17321,18.63,73998.5,4.79,2.13,0.91,0,*49
1496199781.88,17322,18.69,73992.8,4.79,2.21,0.91,0,*4B
1496199783.13,17323,18.63,74004.8,4.79,2.13,0.91,0,*4B
1496199784.35,17324,18.69,73994.3,4.81,2.09,0.79,0,*46
1496199785.6,17325,18.69,73994.8,4.79,2.09,0.87,0,*41
1496199786.85,17326,18.69,74006.3,4.79,2.09,0.79,0,*43
1496199788.07,17327,18.63,74004.0,4.81,2.21,0.87,0,*4E
1496199789.29,17328,18.69,73992.5,4.81,2.13,0.75,0,*4D
1496199790.52,17329,18.63,73994.3,4.81,2.13,0.75,0,*4C
1496199791.74,17330,18.69,73990.8,4.81,2.09,0.75,0,*4F
1496199792.96,17331,18.63,73990.3,4.81,2.09,0.75,0,*4E
1496199794.19,17332,18.63,73996.0,4.81,2.09,0.75,0,*4D
1496199795.44,17333,18.69,74006.0,4.79,2.09,0.87,0,*46
1496199796.69,17334,18.63,74002.0,4.79,2.13,0.75,0,*47
1496199797.91,17335,18.69,74006.8,4.81,2.13,0.79,0,*4D
1496199799.16,17336,18.63,74010.0,4.79,2.13,0.79,0,*49
1496199800.38,17337,18.69,74014.8,4.81,2.13,0.75,0,*43
1496199801.6,17338,18.69,73994.8,4.81,2.13,0.75,0,*4C
1496199802.86,17339,18.63,74008.0,4.79,2.09,0.55,0,*43
1496199804.08,17340,18.63,73990.3,4.81,2.09,0.63,0,*4F
1496199805.29,17341,18.69,73986.0,4.81,2.09,0.67,0,*4A
1496199806.51,17342,18.69,74014.5,4.81,2.09,0.63,0,*4D
1496199807.74,17343,18.69,74016.0,4.81,2.09,0.63,0,*4C
1496199808.96,17344,18.63,74010.0,4.81,2.13,0.63,0,*40
1496199810.18,17345,18.69,74010.8,4.85,2.05,0.55,0,*47
1496199811.41,17346,18.63,74002.8,4.85,2.05,0.55,0,*44
1496199812.63,17347,18.63,73996.0,4.85,2.25,0.71,0,*41
1496199813.82,17348,18.63,73996.0,4.85,2.27,0.67,0,*4B
1496199815.04,17349,18.63,73980.3,4.87,2.27,0.71,0,*4F
1496199816.29,17350,18.63,73982.3,4.87,2.17,0.67,0,*43
1496199817.55,17351,18.63,73998.8,4.87,2.17,0.79,0,*4D
1496199818.77,17352,18.63,74016.3,4.85,2.13,0.59,0,*4A
1496199819.97,17353,18.69,74008.5,4.85,2.01,0.43,0,*43
1496199821.17,17354,18.63,73980.8,4.85,2.01,0.43,0,*44
1496199822.39,17355,18.63,73972.3,4.85,2.01,0.47,0,*41
1496199823.62,17356,18.63,73980.0,4.85,2.13,0.55,0,*42
1496199824.84,17357,18.63,73982.5,4.85,2.05,0.55,0,*44
1496199826.07,17358,18.63,73986.8,4.85,2.01,0.47,0,*4C
1496199827.32,17359,18.63,73994.3,4.87,2.13,0.59,0,*43
1496199828.57,17360,18.69,73994.5,4.87,2.05,0.55,0,*42
1496199829.82,17361,18.63,73988.5,4.87,2.01,0.47,0,*44
1496199831.05,17362,18.69,73988.0,4.87,2.01,0.43,0,*43
1496199832.29,17363,18.63,73984.0,4.87,1.89,0.29,0,*4D
1496199833.54,17364,18.63,73984.3,4.87,1.93,0.33,0,*4A
1496199834.79,17365,18.63,73980.8,4.87,1.93,0.37,0,*4F
1496199836.04,17366,18.69,73996.3,4.87,2.01,0.47,0,*43
1496199837.29,17367,18.69,73944.3,4.87,2.05,0.47,0,*46
1496199838.52,17368,18.63,73980.5,4.85,2.01,0.47,0,*4F
1496199839.77,17369,18.69,73972.0,4.87,2.05,0.47,0,*48
1496199841.01,17370,18.63,73986.5,4.87,1.89,0.37,0,*40
1496199842.26,17371,18.69,73986.5,4.87,1.89,0.37,0,*41
1496199843.5,17372,18.69,73998.5,4.87,1.89,0.29,0,*4D
1496199844.72,17373,18.69,73998.0,4.85,1.93,0.37,0,*4A
1496199845.95,17374,18.63,73996.0,4.87,1.93,0.43,0,*4C
1496199847.16,17375,18.63,74004.3,4.85,1.89,0.33,0,*43
1496199848.41,17376,18.69,74010.0,4.87,1.93,0.33,0,*49
1496199849.66,17377,18.69,73996.5,4.87,2.01,0.37,0,*44
1496199850.9,17378,18.63,73992.8,4.87,1.67,0.17,0,*4A
1496199852.12,17379,18.63,73984.5,4.87,1.79,0.17,0,*44
1496199853.37,17380,18.69,73986.0,4.87,1.89,0.29,0,*40
1496199854.62,17381,18.63,73964.3,4.87,1.93,0.37,0,*45
1496199855.86,17382,18.63,73976.3,4.87,1.93,0.33,0,*42
1496199857.11,17383,18.69,74000.0,4.87,1.93,0.37,0,*47
1496199858.36,17384,18.69,74006.3,4.87,1.89,0.29,0,*44
1496199859.58,17385,18.69,73982.0,4.87,1.79,0.17,0,*47
1496199860.78,17386,18.69,73990.0,4.85,1.79,0.17,0,*46
1496199862.02,17387,18.69,73994.5,4.87,1.89,0.29,0,*47
1496199863.26,17388,18.69,73994.8,4.87,1.89,0.33,0,*43
1496199864.51,17389,18.63,73994.3,4.87,1.89,0.37,0,*46
1496199865.73,17390,18.63,73988.0,4.85,1.89,0.21,0,*4B
1496199866.97,17391,18.69,73988.0,4.87,1.89,0.29,0,*40
1496199868.22,17392,18.69,73988.3,4.87,2.01,0.37,0,*4F
1496199869.47,17393,18.69,74000.8,4.87,2.01,0.37,0,*4E
1496199870.72,17394,18.63,73990.3,4.87,1.89,0.37,0,*4A
1496199871.97,17395,18.63,73996.0,4.87,2.01,0.37,0,*48
1496199873.21,17396,18.69,73994.8,4.87,1.93,0.33,0,*47
1496199874.46,17397,18.63,73994.8,4.87,1.89,0.29,0,*46
1496199875.71,17398,18.63,73996.0,4.87,1.89,0.21,0,*41
1496199876.92,17399,18.69,73990.0,4.87,1.83,-0.15,0,*60
1496199878.13,17400,18.63,73982.5,4.87,1.79,-0.19,0,*6E
1496199879.36,17401,18.63,73988.0,4.87,1.75,-0.27,0,*6E
1496199880.53,17402,18.63,73994.3,4.85,1.79,-0.07,0,*51
1496199881.74,17403,18.69,74000.8,4.87,1.79,-0.07,0,*52
1496199882.94,17404,18.69,74008.0,4.87,1.79,-0.07,0,*55
1496199884.12,17405,18.63,74006.8,4.85,1.79,-0.15,0,*65
1496199885.36,17406,18.63,73988.8,4.87,1.63,-0.37,0,*6F
1496199886.59,17407,18.63,73998.5,4.87,1.55,-0.29,0,*64
1496199887.8,17408,18.69,74010.0,4.87,1.79,-0.19,0,*66
1496199889.0,17409,18.63,73996.8,4.87,1.79,-0.07,0,*58
1496199890.23,17410,18.63,74012.8,4.87,1.89,-0.03,0,*5B
1496199891.44,17411,18.63,74006.5,4.87,1.83,-0.15,0,*67
1496199892.65,17412,18.63,74004.8,4.87,1.75,-0.19,0,*61
1496199893.86,17413,18.63,73992.5,4.87,1.79,-0.15,0,*60
1496199895.07,17414,18.69,74002.5,4.87,1.75,-0.15,0,*6B
1496199896.28,17415,18.69,74000.8,4.87,1.75,-0.15,0,*6A
1496199897.49,17416,18.63,74004.5,4.87,1.79,-0.15,0,*65
1496199898.7,17417,18.63,74002.5,4.87,1.75,-0.19,0,*64
1496199899.91,17418,18.69,74010.0,4.87,1.75,-0.19,0,*6B
1496199901.14,17419,18.63,74014.0,4.87,1.67,-0.19,0,*69
1496199902.37,17420,18.63,74006.3,4.87,1.75,-0.27,0,*6D
1496199903.6,17421,18.63,74012.8,4.87,1.75,-0.27,0,*6C
1496199904.81,17422,18.63,74016.0,4.87,1.75,-0.19,0,*62
1496199906.04,17423,18.69,74014.5,4.87,1.63,-0.29,0,*67
1496199907.29,17424,18.63,74018.0,4.87,1.63,-0.27,0,*6E
1496199908.5,17425,18.63,73998.3,4.85,1.55,-0.53,0,*6B
1496199909.74,17426,18.63,74000.0,4.87,1.55,-0.37,0,*68
1496199910.97,17427,18.63,74002.8,4.87,1.63,-0.49,0,*65
1496199912.21,17428,18.69,73996.0,4.87,1.55,-0.37,0,*66
1496199913.45,17429,18.69,74002.5,4.87,1.51,-0.41,0,*62
1496199914.67,17430,18.63,73996.8,4.87,1.51,-0.53,0,*69
1496199915.9,17431,18.63,74008.8,4.87,1.43,-0.57,0,*6F
1496199917.1,17432,18.69,74014.5,4.85,1.51,-0.53,0,*69
1496199918.31,17433,18.63,74002.3,4.85,1.55,-0.53,0,*6C
1496199919.51,17434,18.63,74000.8,4.85,1.43,-0.65,0,*69
1496199920.71,17435,18.63,74004.5,4.85,1.43,-0.53,0,*6D
1496199921.91,17436,18.63,74014.0,4.85,1.43,-0.49,0,*65
1496199923.12,17437,18.69,74026.5,4.85,1.51,-0.49,0,*67
1496199924.33,17438,18.63,74036.3,4.85,1.55,-0.41,0,*64
1496199925.54,17439,18.63,74032.3,4.85,1.55,-0.37,0,*64
1496199926.75,17440,18.63,74018.8,4.85,1.51,-0.49,0,*67
1496199927.96,17441,18.63,74000.5,4.85,1.43,-0.41,0,*6D
1496199929.13,17442,18.63,73984.3,4.85,1.41,-0.57,0,*6B
1496199930.31,17443,18.63,73932.3,4.85,1.41,-0.53,0,*6E
1496199931.49,17444,18.63,73944.3,4.85,1.41,-0.57,0,*6D
1496199932.7,17445,18.69,73984.8,4.81,1.29,-0.57,0,*66
1496199933.9,17446,18.69,74030.0,4.81,1.51,-0.45,0,*69
1496199935.11,17447,18.63,74004.3,4.81,1.51,-0.41,0,*6C
1496199936.32,17448,18.63,74000.8,4.81,1.47,-0.41,0,*64
1496199937.55,17449,18.63,73996.3,4.79,1.47,-0.57,0,*65
1496199938.78,17450,18.63,73998.8,4.79,1.47,-0.41,0,*6A
1496199940.01,17451,18.63,74002.0,4.79,1.47,-0.53,0,*68
1496199941.18,17452,18.63,74002.5,4.81,1.41,-0.61,0,*6B
1496199942.36,17453,18.63,73990.0,4.81,1.41,-0.61,0,*6A
1496199943.57,17454,18.63,73992.3,4.81,1.37,-0.61,0,*6C
1496199944.74,17455,18.63,74000.3,4.81,1.41,-0.53,0,*6D
1496199945.95,17456,18.69,74004.8,4.81,1.51,-0.45,0,*68
1496199947.15,17457,18.63,74000.8,4.81,1.59,-0.41,0,*65
1496199948.38,17458,18.63,74014.0,4.79,1.47,-0.45,0,*66
1496199949.59,17459,18.69,74010.5,4.85,1.51,-0.49,0,*6F
1496199950.8,17460,18.63,74008.5,4.85,1.55,-0.41,0,*69
1496199952.0,17461,18.63,74018.0,4.81,1.59,-0.57,0,*67
1496199953.21,17462,18.63,74002.0,4.81,1.63,-0.45,0,*6E
1496199954.41,17463,18.63,73984.8,4.81,1.47,-0.57,0,*6A
1496199955.61,17464,18.63,73964.0,4.85,1.43,-0.49,0,*62
1496199956.79,17465,18.63,73956.0,4.85,1.41,-0.57,0,*6E
1496199957.97,17466,18.63,73980.3,4.81,1.41,-0.57,0,*69
1496199959.14,17467,18.63,74004.3,4.81,1.41,-0.61,0,*6D
1496199960.37,17468,18.63,73996.3,4.79,1.51,-0.57,0,*61
1496199961.57,17469,18.63,73996.5,4.81,1.51,-0.53,0,*63
1496199962.75,17470,18.63,73990.3,4.81,1.41,-0.61,0,*6B
1496199963.95,17471,18.63,74002.0,4.81,1.47,-0.45,0,*6A
1496199965.15,17472,18.63,74006.3,4.81,1.47,-0.45,0,*69
1496199966.36,17473,18.63,74010.0,4.81,1.51,-0.33,0,*6E
1496199967.57,17474,18.63,74010.0,4.81,1.63,-0.41,0,*6D
1496199968.77,17475,18.69,74010.3,4.81,1.51,-0.53,0,*6E
1496199969.98,17476,18.63,73978.8,4.81,1.37,-0.61,0,*6C
1496199971.18,17477,18.63,73976.8,4.87,1.41,-0.57,0,*6F
1496199972.39,17478,18.63,73990.0,4.85,1.43,-0.41,0,*67
1496199973.57,17479,18.63,74004.8,4.85,1.41,-0.53,0,*67
1496199974.74,17480,18.63,74004.0,4.85,1.41,-0.53,0,*61
1496199975.98,17481,18.63,74002.0,4.87,1.51,-0.41,0,*60
1496199977.19,17482,18.63,74010.8,4.85,1.51,-0.41,0,*61
1496199978.37,17483,18.63,73998.5,4.85,1.41,-0.49,0,*69
1496199979.55,17484,18.63,73988.8,4.85,1.41,-0.53,0,*65
1496199980.75,17485,18.63,74002.8,4.81,1.25,-0.69,0,*6B
1496199981.96,17486,18.63,73994.0,4.85,1.21,-0.69,0,*68
1496199983.2,17487,18.63,73992.3,4.85,1.21,-0.89,0,*67
1496199984.41,17488,18.63,73984.8,4.85,1.29,-0.77,0,*61
1496199985.62,17489,18.63,73998.0,4.85,1.33,-0.65,0,*68
1496199986.83,17490,18.63,73998.8,4.85,1.21,-0.77,0,*60
1496199988.04,17491,18.63,73996.5,4.85,1.17,-0.81,0,*6D
1496199989.27,17492,18.63,73988.3,4.85,1.09,-0.89,0,*69
1496199990.51,17493,18.63,73992.5,4.81,1.13,-0.85,0,*6B
1496199991.74,17494,18.63,73990.8,4.81,1.13,-0.85,0,*6C
1496199992.95,17495,18.63,73992.8,4.81,1.17,-0.73,0,*60
1496199994.16,17496,18.63,73996.5,4.81,1.17,-0.69,0,*68
1496199995.38,17497,18.63,74000.0,4.81,1.13,-0.73,0,*66
1496199996.58,17498,18.63,74004.8,4.81,1.17,-0.69,0,*66
1496199997.79,17499,18.63,73998.5,4.81,1.25,-0.61,0,*6E
1496199999.0,17500,18.63,74002.0,4.81,1.13,-0.69,0,*62
1496200000.2,17501,18.63,73994.0,4.81,1.25,-0.61,0,*6E
1496200001.43,17502,18.63,74002.8,4.79,1.25,-0.69,0,*62
1496200002.64,17503,18.63,73988.8,4.81,1.17,-0.81,0,*63
1496200003.84,17504,18.63,73968.8,4.81,1.01,-0.85,0,*67
1496200005.02,17505,18.63,73976.5,4.81,1.05,-0.81,0,*66
1496200006.24,17506,18.63,73994.0,4.81,1.13,-0.69,0,*64
1496200007.44,17507,18.63,74010.5,4.81,1.01,-0.85,0,*64
1496200008.64,17508,18.63,74012.0,4.81,1.01,-0.85,0,*6B
1496200009.84,17509,18.63,73992.0,4.81,1.01,-0.93,0,*6D
1496200011.06,17510,18.69,73990.3,4.79,0.97,-0.85,0,*5B
1496200012.27,17511,18.63,74002.0,4.81,1.17,-0.69,0,*66
1496200013.49,17512,18.63,74006.8,4.81,1.13,-0.73,0,*6A
1496200014.69,17513,18.63,74004.3,4.81,1.25,-0.57,0,*68
1496200015.93,17514,18.63,74010.5,4.79,1.13,-0.69,0,*60
1496200017.11,17515,18.63,74000.8,4.81,1.01,-0.69,0,*65
1496200018.33,17516,18.63,74008.5,4.81,1.13,-0.73,0,*6E
1496200019.53,17517,18.63,73996.5,4.79,1.01,-0.81,0,*66
1496200020.77,17518,18.63,73984.5,4.79,1.17,-0.69,0,*68
1496200021.98,17519,18.63,73986.0,4.81,1.17,-0.57,0,*63
1496200023.21,17520,18.63,74006.5,4.79,1.17,-0.61,0,*6B
1496200024.45,17521,18.63,74004.8,4.79,1.13,-0.57,0,*6B
1496200025.63,17522,18.63,73988.5,4.81,0.97,-0.73,0,*54
1496200026.87,17523,18.63,74000.3,4.79,1.17,-0.57,0,*6D
1496200028.11,17524,18.63,74002.0,4.79,1.13,-0.53,0,*6A
1496200029.34,17525,18.63,74004.0,4.79,1.17,-0.57,0,*6B
1496200030.58,17526,18.63,74008.3,4.79,1.25,-0.57,0,*69
1496200031.82,17527,18.63,74010.8,4.79,1.29,-0.45,0,*67
1496200033.05,17528,18.63,74006.5,4.79,1.25,-0.53,0,*63
1496200034.26,17529,18.63,74002.5,4.79,1.01,-0.81,0,*6B
1496200035.44,17530,18.63,74000.5,4.81,1.01,-0.69,0,*62
1496200036.65,17531,18.63,73994.8,4.79,1.01,-0.73,0,*6F
1496200037.86,17532,18.63,74002.0,4.79,1.01,-0.81,0,*61
1496200039.04,17533,18.63,74000.5,4.81,1.01,-0.73,0,*6A
1496200040.22,17534,18.63,74000.5,4.81,1.05,-0.69,0,*62
1496200041.4,17535,18.63,73992.8,4.81,0.97,-0.81,0,*5F
1496200042.58,17536,18.63,74006.0,4.81,1.01,-0.73,0,*6F
1496200043.79,17537,18.63,74004.8,4.79,1.05,-0.73,0,*6D
1496200045.04,17538,18.63,74008.5,4.79,0.91,-0.85,0,*57
1496200046.29,17539,18.63,73996.0,4.79,0.87,-0.93,0,*56
1496200047.51,17540,18.63,74004.5,4.81,0.87,-0.93,0,*5F
1496200048.74,17541,18.63,74020.0,4.81,0.91,-0.93,0,*59
1496200049.99,17542,18.63,74000.5,4.79,0.87,-0.93,0,*5A
1496200051.23,17543,18.63,73982.3,4.79,0.87,-0.93,0,*5B
1496200052.44,17544,18.63,74004.3,4.79,0.97,-0.69,0,*58
1496200053.68,17545,18.63,73990.0,4.79,0.75,-0.97,0,*54
1496200054.92,17546,18.63,74000.3,4.79,0.67,-0.97,0,*54
1496200056.13,17547,18.63,73992.0,4.81,0.67,-1.09,0,*64
1496200057.39,17548,18.63,74000.5,4.79,0.55,-1.09,0,*6D
1496200058.64,17549,18.63,74004.5,4.79,0.55,-1.05,0,*60
1496200059.89,17550,18.63,74002.3,4.79,0.63,-1.09,0,*61
1496200061.13,17551,18.63,74008.3,4.79,0.67,-0.93,0,*56
1496200062.35,17552,18.63,74012.0,4.77,0.83,-0.89,0,*5A
1496200063.53,17553,18.63,74006.8,4.77,0.97,-0.73,0,*5B
1496200064.74,17554,18.63,74002.0,4.79,1.01,-0.69,0,*67
1496200065.95,17555,18.63,74014.0,4.79,1.05,-0.69,0,*62
1496200067.16,17556,18.63,73998.0,4.81,1.13,-0.61,0,*69
1496200068.37,17557,18.63,74002.0,4.79,1.01,-0.73,0,*6F
1496200069.57,17558,18.63,74000.3,4.79,1.01,-0.69,0,*6B
1496200070.79,17559,18.63,73996.5,4.81,0.87,-0.93,0,*57
1496200072.0,17560,18.63,74004.5,4.79,1.01,-0.81,0,*66
1496200073.19,17561,18.63,74004.3,4.81,1.01,-0.73,0,*6D
1496200074.4,17562,18.63,74012.3,4.79,1.01,-0.73,0,*69
1496200075.6,17563,18.63,74008.3,4.81,1.01,-0.85,0,*66
1496200076.85,17564,18.63,73988.8,4.79,0.87,-0.93,0,*5E
1496200078.1,17565,18.63,73986.5,4.79,0.79,-0.97,0,*5A
1496200079.34,17566,18.63,73980.3,4.79,0.87,-0.93,0,*5C
1496200080.59,17567,18.63,73970.8,4.79,0.87,-0.93,0,*5D
1496200081.84,17568,18.63,73992.5,4.79,0.91,-0.85,0,*52
1496200083.07,17569,18.63,73976.8,4.81,0.87,-0.85,0,*53
1496200084.31,17570,18.63,73998.8,4.79,0.67,-1.05,0,*6B
1496200085.55,17571,18.63,74020.3,4.79,0.75,-0.93,0,*57
1496200086.79,17572,18.63,74016.0,4.79,0.67,-0.85,0,*50
1496200088.04,17573,18.63,74016.8,4.79,0.87,-0.85,0,*5F
1496200089.29,17574,18.63,74010.3,4.79,0.87,-0.85,0,*58
1496200090.54,17575,18.63,74004.3,4.79,0.63,-1.05,0,*6A
1496200091.79,17576,18.63,74022.0,4.79,0.79,-0.97,0,*58
1496200093.04,17577,18.63,73982.3,4.79,0.87,-0.93,0,*5C
1496200094.29,17578,18.63,73994.0,4.79,0.79,-0.97,0,*56
1496200095.53,17579,18.63,73990.8,4.79,0.79,-0.93,0,*53
1496200096.75,17580,18.63,73992.0,4.81,0.79,-0.93,0,*52
1496200097.97,17581,18.63,73990.3,4.81,0.79,-0.93,0,*53
1496200099.18,17582,18.63,73998.5,4.81,0.55,-1.17,0,*63
1496200100.4,17583,18.63,74000.5,4.79,0.63,-1.17,0,*60
1496200101.64,17584,18.63,74002.8,4.79,0.55,-1.21,0,*67
1496200102.84,17585,18.63,74006.8,4.81,0.55,-1.21,0,*61
1496200104.07,17586,18.63,74004.5,4.79,0.43,-1.35,0,*67
1496200105.29,17587,18.63,74002.5,4.79,0.63,-1.17,0,*64
1496200106.54,17588,18.63,74002.0,4.79,0.55,-1.09,0,*61
1496200107.78,17589,18.63,74000.8,4.79,0.55,-1.17,0,*6F
1496200108.98,17590,18.63,74012.5,4.81,0.55,-1.17,0,*60
1496200110.21,17591,18.63,74004.5,4.79,0.55,-1.21,0,*63
1496200111.41,17592,18.63,73978.3,4.79,0.43,-1.55,0,*64
1496200112.63,17593,18.63,73970.8,4.79,0.43,-1.43,0,*62
1496200113.85,17594,18.63,73972.5,4.79,0.43,-1.35,0,*64
1496200115.08,17595,18.63,73970.0,4.77,0.37,-1.47,0,*6D
1496200116.33,17596,18.63,73996.0,4.79,0.51,-1.35,0,*65
1496200117.56,17597,18.63,74034.3,4.79,0.51,-1.21,0,*61
1496200118.79,17598,18.63,74036.8,4.79,0.63,-1.17,0,*6A
1496200120.01,17599,18.63,74012.3,4.79,0.75,-1.17,0,*6C
1496200121.24,17600,18.63,74018.3,4.79,0.55,-1.29,0,*60
1496200122.47,17601,18.63,74004.8,4.79,0.63,-1.21,0,*6C
1496200123.69,17602,18.63,74008.3,4.81,0.79,-0.97,0,*5F
1496200124.92,17603,18.63,74018.3,4.79,0.55,-1.29,0,*63
1496200126.15,17604,18.63,74002.3,4.79,0.63,-1.29,0,*61
1496200127.39,17605,18.63,74004.8,4.79,0.75,-1.09,0,*65